This demonstration page uses our WeatherBlox Daily Observations layout. Learn more.

Left ArrowRight Arrow

53.62937, 11.41316

Hourly Observations for January 16, 2016

Temp ( °F °C ) Dew Point ( °F °C ) Humidity (%) Winds ( mph kmh ) Pressure ( in mb ) Visibility ( mi km ) Precip ( " mm )
5:20 am 05:20 Cloudy 30 -1 28 -2 93 93 SW 6 9 30.06 1018 30 48 N/A
5:50 am 05:50 Cloudy 30 -1 28 -2 93 93 S 7 11 30.06 1018 30 48 N/A
6:20 am 06:20 Mostly Cloudy 30 -1 28 -2 93 93 SSW 6 9 30.06 1018 30 48 N/A
6:50 am 06:50 Cloudy 30 -1 28 -2 93 93 SSW 8 13 30.06 1018 30 48 N/A
7:20 am 07:20 Cloudy 30 -1 28 -2 93 93 SW 8 13 30.06 1018 30 48 N/A
7:50 am 07:50 Cloudy 30 -1 28 -2 93 93 SSW 7 11 30.06 1018 30 48 N/A
8:20 am 08:20 Mostly Cloudy 30 -1 28 -2 93 93 SSW 6 9 30.06 1018 30 48 N/A
8:50 am 08:50 Mostly Cloudy 30 -1 28 -2 93 93 S 6 9 30.06 1018 30 48 N/A
9:20 am 09:20 Cloudy 30 -1 28 -2 93 93 SW 9 15 30.06 1018 4 6 N/A
9:50 am 09:50 Cloudy with Light Snow 30 -1 28 -2 93 93 S 6 9 30.06 1018 2 4 N/A
10:20 am 10:20 Cloudy with Light Snow 30 -1 28 -2 93 93 S 5 7 30.06 1018 2 3 N/A
10:50 am 10:50 Cloudy 30 -1 28 -2 93 93 SSW 5 7 30.06 1018 4 6 N/A
11:20 am 11:20 Cloudy with Light Snow 32 0 28 -2 87 87 SSW 5 7 30.06 1018 4 6 N/A
11:50 am 11:50 Cloudy 32 0 30 -1 93 93 SSW 7 11 30.06 1018 4 6 N/A
12:20 pm 12:20 Cloudy 32 0 28 -2 87 87 S 8 13 30.06 1018 6 9 N/A
12:50 pm 12:50 Cloudy 32 0 28 -2 87 87 SSW 7 11 30.03 1017 30 48 N/A
1:20 pm 13:20 Cloudy 32 0 30 -1 93 93 SSW 6 9 30.03 1017 30 48 N/A
1:50 pm 13:50 Cloudy 32 0 28 -2 87 87 S 7 11 30.03 1017 30 48 N/A
2:20 pm 14:20 Cloudy 32 0 28 -2 87 87 S 6 9 30.03 1017 30 48 N/A
2:50 pm 14:50 Cloudy 32 0 28 -2 87 87 SW 6 9 30.03 1017 30 48 N/A
3:20 pm 15:20 Cloudy 32 0 28 -2 87 87 SSW 5 7 30.03 1017 30 48 N/A
3:50 pm 15:50 Cloudy 32 0 28 -2 87 87 S 7 11 30.03 1017 30 48 N/A
4:20 pm 16:20 Cloudy 32 0 27 -3 80 80 SSE 6 9 30.03 1017 30 48 N/A
4:50 pm 16:50 Cloudy 32 0 28 -2 87 87 SSE 5 7 30.03 1017 30 48 N/A
5:20 pm 17:20 Cloudy 32 0 28 -2 87 87 SSE 3 6 30.03 1017 30 48 N/A
5:50 pm 17:50 Cloudy 30 -1 28 -2 93 93 S 3 6 30.03 1017 30 48 N/A

Powered by AerisWeather